[[{"header":{"parameterUnit":"m.s-1","parameterCategory":1,"la1":30.2991,"la2":30.254,"lo1":-89.0895,"lo2":-89.0444,"dy":0.0017,"dx":0.0017,"nx":28,"ny":28,"refTime":"2023-09-08T09:00:00:Z","depth":0,"parameterNumber":2,"parameterNumberName":"U-component_of_WINDS"},"data":[0,0,0,0,0,0,0,0,0,0,0,0,0,0,0,0,0,0,0,0,0,0,0,0,0,0,0,0,0,0,0,0,0,0,0,0,0,0,0,0,0,0,0,0,0,0,0,0,0,0,0,0,0,0,0,0,0,0,-0.6774,-0.6775,0,-0.6845,-0.6846,-0.6847,-0.6843,-0.6842,-0.6841,-0.684,-0.6911,-0.6914,-0.6917,0,0,0,0,0,0,0,0,0,0,0,0,0,-0.6634,-0.6637,-0.6774,-0.6775,-0.6776,-0.6845,-0.6846,-0.6847,-0.6843,-0.6842,-0.6841,-0.684,-0.691,-0.6914,-0.6917,0,0,0,0,0,0,0,0,0,0,0,0,0,-0.6699,-0.6637,-0.6774,-0.6783,-0.6784,-0.6845,-0.6846,-0.6847,-0.6844,-0.6842,-0.6841,-0.6839,-0.6909,-0.6913,-0.6918,-0.6974,0,0,-0.693,-0.6932,0,0,0,0,0,0,0,0,-0.6695,-0.6704,-0.678,-0.6782,-0.6784,-0.6834,-0.6823,-0.689,-0.6844,-0.6821,-0.684,-0.6838,-0.6887,-0.6893,-0.6909,-0.6977,-0.698,-0.6931,-0.6933,-0.6935,-0.6936,0,0,0,0,0,0,0,-0.6691,-0.6701,-0.6802,-0.6782,-0.6784,-0.6782,-0.679,-0.6835,-0.6861,-0.6823,-0.6823,-0.6831,-0.6887,-0.6905,-0.6911,-0.6982,-0.6931,-0.6935,-0.6937,-0.6939,-0.7099,-0.7101,0,0,0,0,0,0,-0.6685,-0.6697,-0.68,-0.6804,-0.6735,-0.6786,-0.6794,-0.6819,-0.6861,-0.6866,-0.6833,-0.6831,-0.6899,-0.6906,-0.6913,-0.6982,-0.6935,-0.6939,-0.6942,-0.7098,-0.71,-0.7102,0,0,0,0,0,0,-0.6682,-0.6694,-0.6797,-0.6751,-0.6764,-0.679,-0.6818,-0.6822,-0.6839,-0.6868,-0.6873,-0.6846,-0.6898,-0.6907,-0.6959,-0.6985,-0.6941,-0.6945,-0.7096,-0.7098,-0.7101,-0.7121,0,0,0,0,0,0,-0.6678,-0.6693,-0.6715,-0.6751,-0.6766,-0.6842,-0.682,-0.6824,-0.6847,-0.6845,-0.6882,-0.6887,-0.6897,-0.6953,-0.6963,-0.699,-0.6948,-0.7093,-0.7097,-0.71,-0.7118,-0.7124,-0.7129,0,0,0,0,0,-0.6673,-0.6717,-0.6716,-0.6728,-0.6795,-0.6844,-0.6852,-0.6864,-0.6849,-0.6871,-0.689,-0.6886,-0.698,-0.6958,-0.697,-0.6998,-0.7092,-0.7096,-0.71,-0.7115,-0.7122,-0.7128,0,0,0,0,0,0,-0.6683,-0.6722,-0.6721,-0.6779,-0.6808,-0.6843,-0.6872,-0.6871,-0.6905,-0.6902,-0.6914,-0.6922,-0.6974,-0.6991,-0.6966,-0.7055,-0.7034,-0.704,-0.7042,-0.7049,-0.7054,-0.7049,-0.6952,0,0,0,0,0,-0.6692,-0.6729,-0.6761,-0.6809,-0.6824,-0.6845,-0.6867,-0.6874,-0.6904,-0.6916,-0.6938,-0.6967,-0.7003,-0.7027,-0.7062,-0.712,-0.7128,-0.7145,-0.7151,-0.7155,-0.716,-0.7192,-0.72,-0.7114,-0.7114,-0.7114,0,0,-0.6711,-0.6737,-0.676,-0.6812,-0.6835,-0.6873,-0.6856,-0.6896,-0.6924,-0.6922,-0.6972,-0.699,-0.7023,-0.7078,-0.7103,-0.7094,-0.7186,-0.716,-0.7163,-0.7166,-0.7197,-0.7205,-0.7212,-0.7117,-0.7116,-0.7116,0,0,-0.6765,-0.6788,-0.6831,-0.6855,-0.689,-0.6904,-0.6914,-0.695,-0.6961,-0.7012,-0.7011,-0.7044,-0.7106,-0.713,-0.715,-0.7213,-0.721,-0.7224,-0.7252,-0.7282,-0.7289,-0.7295,-0.7317,-0.7325,-0.7229,-0.7229,-0.7229,0,-0.6784,-0.6841,-0.6853,-0.6894,-0.6917,-0.6917,-0.696,-0.6982,-0.7027,-0.7043,-0.7031,-0.7109,-0.7132,-0.7192,-0.7208,-0.7224,-0.7236,-0.722,-0.7287,-0.7294,-0.7299,-0.7321,-0.7329,-0.723,-0.723,-0.723,-0.723,0,-0.6862,-0.6902,-0.6932,-0.6976,-0.7003,-0.7044,-0.7062,-0.7087,-0.7091,-0.7106,-0.7158,-0.7184,-0.7225,-0.7239,-0.7244,-0.7301,-0.7294,-0.7285,-0.7264,-0.7309,-0.7329,-0.7337,-0.7232,-0.7232,-0.7231,-0.7231,0,0,-0.6925,-0.6975,-0.6986,-0.7006,-0.7045,-0.7076,-0.7117,-0.7157,-0.7178,-0.7209,-0.7244,-0.7296,-0.7288,-0.7311,-0.7318,-0.7345,-0.7393,-0.7333,-0.7334,-0.7343,-0.7457,-0.7463,-0.7473,-0.7391,-0.7393,-0.7394,-0.7454,0,-0.6983,-0.7057,-0.7069,-0.7134,-0.7171,-0.7172,-0.7208,-0.7235,-0.725,-0.7283,-0.7299,-0.7336,-0.7323,-0.7337,-0.7363,-0.7381,-0.7416,-0.7377,-0.7423,-0.7425,-0.7415,-0.7483,-0.749,-0.7546,-0.7462,-0.7463,-0.7464,0,-0.706,-0.7094,-0.7163,-0.7197,-0.7213,-0.7245,-0.7283,-0.7314,-0.7345,-0.7354,-0.738,-0.7383,-0.7426,-0.7403,-0.7461,-0.7435,-0.7454,-0.7466,-0.7468,-0.7473,-0.7447,-0.749,-0.7564,-0.7572,-0.7477,-0.7476,-0.7475,0,-0.7099,-0.7161,-0.7211,-0.7228,-0.7269,-0.7291,-0.7309,-0.7339,-0.7362,-0.7395,-0.741,-0.7447,-0.7467,-0.7495,-0.7508,-0.749,-0.7565,-0.7544,-0.7573,-0.7573,-0.7589,-0.7588,-0.7667,-0.7602,-0.7602,-0.7601,-0.7601,0,-0.7162,-0.7204,-0.7228,-0.7259,-0.7306,-0.7319,-0.7365,-0.7382,-0.7408,-0.7442,-0.7444,-0.7475,-0.749,-0.7524,-0.7534,-0.758,-0.7589,-0.7597,-0.76,-0.7597,-0.7596,-0.761,-0.7607,-0.7604,-0.7603,-0.7603,-0.7602,0,-0.7213,-0.7231,-0.7285,-0.732,-0.7329,-0.7362,-0.7392,-0.7421,-0.7435,-0.7477,-0.7488,-0.7511,-0.755,-0.7566,-0.7613,-0.762,-0.7674,-0.7673,-0.7664,-0.7664,-0.7693,-0.769,-0.7784,-0.7797,-0.7723,-0.7723,-0.7724,0,-0.7253,-0.7285,-0.7323,-0.7346,-0.7365,-0.7402,-0.7426,-0.7439,-0.7464,-0.7502,-0.7526,-0.7565,-0.7598,-0.766,-0.768,-0.7716,-0.7716,-0.7747,-0.7722,-0.7718,-0.7717,-0.7715,-0.7718,-0.7751,-0.7752,-0.7753,-0.7753,0,-0.732,-0.7328,-0.7362,-0.74,-0.7429,-0.7459,-0.7488,-0.7507,-0.7525,-0.7552,-0.7593,-0.7618,-0.7667,-0.7705,-0.7743,-0.776,-0.776,-0.7761,-0.777,-0.7768,-0.7761,-0.7765,-0.7676,-0.7759,-0.7758,-0.7758,-0.7758,-0.7757,-0.7367,-0.7396,-0.7427,-0.7466,-0.7489,-0.7517,-0.7546,-0.7564,-0.7599,-0.764,-0.7646,-0.7689,-0.7719,-0.7769,-0.7788,-0.7822,-0.7814,-0.7826,-0.783,-0.7832,-0.7834,-0.7756,-0.7829,-0.7828,-0.7828,-0.7828,-0.7828,0,-0.7434,-0.7455,-0.749,-0.7532,-0.7562,-0.7559,-0.7592,-0.7617,-0.7655,-0.7683,-0.7715,-0.7761,-0.7798,-0.7822,-0.7859,-0.7881,-0.7882,-0.7891,-0.7889,-0.7893,-0.7839,-0.7828,-0.789,-0.789,-0.789,-0.789,-0.789,-0.789,-0.7473,-0.7522,-0.7533,-0.7593,-0.7613,-0.7656,-0.7675,-0.77,-0.7722,-0.7774,-0.7806,-0.7821,-0.7847,-0.7886,-0.792,-0.7926,-0.794,-0.7949,-0.7954,-0.7903,-0.7897,-0.7891,-0.788,-0.7952,-0.7952,-0.8005,-0.8006,-0.8006]},{"header":{"parameterUnit":"m.s-1","parameterCategory":1,"la1":30.2991,"la2":30.254,"lo1":-89.0895,"lo2":-89.0444,"dy":0.0017,"dx":0.0017,"nx":28,"ny":28,"refTime":"2023-09-08T09:00:00:Z","depth":0,"parameterNumber":3,"parameterNumberName":"V-component_of_WINDS"},"data":[0,0,0,0,0,0,0,0,0,0,0,0,0,0,0,0,0,0,0,0,0,0,0,0,0,0,0,0,0,0,0,0,0,0,0,0,0,0,0,0,0,0,0,0,0,0,0,0,0,0,0,0,0,0,0,0,0,0,-3.1022,-3.1023,0,-3.1123,-3.1124,-3.1125,-3.1104,-3.1103,-3.1101,-3.1099,-3.1199,-3.1203,-3.1207,0,0,0,0,0,0,0,0,0,0,0,0,0,-3.0807,-3.0811,-3.1021,-3.1023,-3.1024,-3.1122,-3.1124,-3.1125,-3.1105,-3.1103,-3.11,-3.1098,-3.1197,-3.1203,-3.1208,0,0,0,0,0,0,0,0,0,0,0,0,0,-3.0903,-3.0813,-3.1021,-3.1026,-3.1027,-3.1122,-3.1124,-3.1126,-3.1105,-3.1103,-3.11,-3.1097,-3.1196,-3.1202,-3.1209,-3.1304,0,0,-3.1229,-3.1231,0,0,0,0,0,0,0,0,-3.0898,-3.0911,-3.1024,-3.1026,-3.1027,-3.1098,-3.1085,-3.1185,-3.1106,-3.1076,-3.1099,-3.1096,-3.1167,-3.1176,-3.1201,-3.1309,-3.1313,-3.1229,-3.1233,-3.1236,-3.1238,0,0,0,0,0,0,0,-3.0891,-3.0907,-3.1061,-3.1026,-3.1028,-3.1022,-3.1032,-3.1104,-3.1136,-3.1078,-3.1077,-3.1089,-3.1168,-3.1195,-3.1203,-3.1315,-3.1229,-3.1235,-3.1239,-3.1241,-3.1505,-3.1508,0,0,0,0,0,0,-3.0884,-3.0901,-3.1058,-3.1064,-3.0955,-3.1028,-3.104,-3.1078,-3.1135,-3.1141,-3.1091,-3.1088,-3.1185,-3.1196,-3.1207,-3.1322,-3.1236,-3.1242,-3.1246,-3.1502,-3.1506,-3.1509,0,0,0,0,0,0,-3.0879,-3.0898,-3.1054,-3.0983,-3.1002,-3.1034,-3.1078,-3.1082,-3.1109,-3.1145,-3.115,-3.1113,-3.1183,-3.1197,-3.128,-3.1325,-3.1245,-3.1251,-3.1498,-3.1503,-3.1507,-3.1553,0,0,0,0,0,0,-3.0873,-3.0896,-3.0934,-3.0984,-3.1006,-3.1127,-3.1081,-3.1086,-3.112,-3.1117,-3.1167,-3.1173,-3.1182,-3.127,-3.1287,-3.1332,-3.1256,-3.1494,-3.15,-3.1506,-3.1548,-3.1559,-3.1568,0,0,0,0,0,-3.0866,-3.0942,-3.0936,-3.0955,-3.1054,-3.113,-3.1143,-3.1153,-3.1124,-3.1161,-3.1185,-3.1171,-3.1318,-3.1279,-3.1297,-3.1346,-3.1492,-3.1499,-3.1505,-3.1543,-3.1556,-3.1568,0,0,0,0,0,0,-3.0895,-3.0949,-3.0942,-3.1038,-3.108,-3.1126,-3.1174,-3.1167,-3.1217,-3.1211,-3.1221,-3.1232,-3.1316,-3.1339,-3.1296,-3.1441,-3.14,-3.1411,-3.1423,-3.1436,-3.1446,-3.1438,-3.1261,0,0,0,0,0,-3.0913,-3.0972,-3.1015,-3.1094,-3.1116,-3.1141,-3.1175,-3.1179,-3.1223,-3.124,-3.1269,-3.1311,-3.1366,-3.1402,-3.1455,-3.1551,-3.1561,-3.1593,-3.1603,-3.1611,-3.162,-3.1672,-3.1686,-3.1532,-3.1532,-3.1531,0,0,-3.095,-3.0987,-3.1023,-3.1101,-3.1134,-3.1194,-3.1156,-3.1221,-3.1264,-3.1249,-3.1329,-3.1352,-3.1399,-3.1489,-3.153,-3.151,-3.1666,-3.162,-3.1626,-3.1631,-3.1681,-3.1695,-3.1708,-3.1536,-3.1535,-3.1535,0,0,-3.1048,-3.1082,-3.1152,-3.1186,-3.1237,-3.1253,-3.127,-3.1318,-3.1333,-3.1414,-3.1404,-3.1455,-3.1551,-3.1584,-3.1614,-3.1725,-3.1713,-3.1741,-3.1794,-3.1845,-3.1857,-3.1868,-3.1906,-3.192,-3.175,-3.1751,-3.1751,0,-3.1088,-3.1178,-3.1189,-3.1254,-3.1289,-3.1279,-3.1349,-3.1381,-3.1446,-3.147,-3.1447,-3.1567,-3.1598,-3.1695,-3.1722,-3.1746,-3.1765,-3.1736,-3.1854,-3.1865,-3.1876,-3.1913,-3.1927,-3.1754,-3.1753,-3.1753,-3.1753,0,-3.1223,-3.1286,-3.1336,-3.14,-3.144,-3.1508,-3.1528,-3.1567,-3.1568,-3.1586,-3.1668,-3.1705,-3.1765,-3.1788,-3.1789,-3.1885,-3.1872,-3.1852,-3.1812,-3.1893,-3.1928,-3.1942,-3.1758,-3.1757,-3.1756,-3.1755,0,0,-3.1342,-3.1412,-3.143,-3.1459,-3.1515,-3.1562,-3.1629,-3.1689,-3.1722,-3.1767,-3.1822,-3.1903,-3.1885,-3.1919,-3.1924,-3.1968,-3.2052,-3.1942,-3.1944,-3.1961,-3.2159,-3.2173,-3.219,-3.2045,-3.2048,-3.205,-3.2155,0,-3.1445,-3.1564,-3.1575,-3.1681,-3.1738,-3.173,-3.1788,-3.1827,-3.1846,-3.1897,-3.1917,-3.1974,-3.1946,-3.1967,-3.201,-3.2033,-3.2092,-3.2025,-3.2095,-3.2098,-3.2084,-3.2208,-3.2223,-3.232,-3.2169,-3.2171,-3.2173,0,-3.158,-3.163,-3.1742,-3.1789,-3.1814,-3.1866,-3.1921,-3.197,-3.2014,-3.2025,-3.2063,-3.2062,-3.2129,-3.2086,-3.2178,-3.2133,-3.2162,-3.2178,-3.2182,-3.2188,-3.214,-3.2217,-3.2352,-3.2366,-3.2194,-3.2193,-3.2191,0,-3.1655,-3.1751,-3.183,-3.1855,-3.1912,-3.1948,-3.1974,-3.2015,-3.2051,-3.2099,-3.2121,-3.2176,-3.2206,-3.2248,-3.2261,-3.2229,-3.2353,-3.2312,-3.2362,-3.2362,-3.2388,-3.2386,-3.2529,-3.2408,-3.2408,-3.2408,-3.2407,0,-3.1768,-3.1836,-3.1864,-3.1913,-3.1989,-3.2001,-3.2076,-3.2099,-3.2136,-3.2188,-3.2184,-3.2233,-3.2248,-3.2299,-3.2309,-3.2384,-3.2397,-3.2407,-3.2409,-3.2407,-3.2406,-3.2426,-3.2419,-3.2412,-3.2411,-3.241,-3.2409,0,-3.1864,-3.1886,-3.1971,-3.2019,-3.2032,-3.2086,-3.2126,-3.2172,-3.2191,-3.2256,-3.2272,-3.2301,-3.236,-3.2378,-3.2449,-3.2457,-3.2543,-3.2539,-3.2529,-3.2529,-3.2578,-3.2573,-3.2738,-3.276,-3.2626,-3.2627,-3.2628,0,-3.1935,-3.1987,-3.2041,-3.2076,-3.2103,-3.216,-3.2196,-3.2209,-3.2247,-3.2301,-3.2341,-3.24,-3.2448,-3.2544,-3.257,-3.2624,-3.2621,-3.2675,-3.2629,-3.2626,-3.2621,-3.2618,-3.2622,-3.2684,-3.2685,-3.2686,-3.2687,0,-3.2057,-3.2065,-3.2118,-3.2175,-3.2218,-3.2263,-3.2306,-3.2335,-3.2355,-3.2397,-3.2459,-3.2496,-3.257,-3.2628,-3.2683,-3.2708,-3.2701,-3.2702,-3.2716,-3.2715,-3.2706,-3.2711,-3.2552,-3.2697,-3.2696,-3.2696,-3.2695,-3.2695,-3.2142,-3.2188,-3.2233,-3.2292,-3.2326,-3.2367,-3.2413,-3.2437,-3.2489,-3.2551,-3.2555,-3.2622,-3.2664,-3.2738,-3.2765,-3.2816,-3.28,-3.2821,-3.2827,-3.2832,-3.2835,-3.2699,-3.2826,-3.2826,-3.2826,-3.2826,-3.2825,0,-3.2264,-3.2292,-3.2346,-3.2407,-3.2453,-3.2444,-3.2491,-3.253,-3.2589,-3.2629,-3.2677,-3.2748,-3.2804,-3.2835,-3.2891,-3.2926,-3.2924,-3.2941,-3.2938,-3.2943,-3.2847,-3.2828,-3.2941,-3.2941,-3.2941,-3.2941,-3.2941,-3.2941,-3.2332,-3.241,-3.2423,-3.2518,-3.2545,-3.2611,-3.2639,-3.2676,-3.2708,-3.2788,-3.2835,-3.2855,-3.2892,-3.295,-3.3002,-3.3009,-3.303,-3.3048,-3.3053,-3.2962,-3.295,-3.2939,-3.2922,-3.3052,-3.3052,-3.3145,-3.3146,-3.3147]}]]